Time,TemperatureF,DewpointF,PressureIn,WindDirection,WindDirectionDegrees,WindSpeedMPH,WindSpeedGustMPH,Humidity,HourlyPrecipIn,Conditions,Clouds,dailyrainin,SoftwareType,DateUTC
2013-06-13 00:00:00,61.2,52.5,29.83,NE,36,0.0,0.0,73,0.00,,---,0.00,VWS V14.01,2013-06-13 04:00:00,
2013-06-13 00:01:00,61.2,52.5,29.83,NE,36,0.0,0.0,73,0.00,,---,0.00,VWS V14.01,2013-06-13 04:01:00,
2013-06-13 00:02:00,61.2,52.5,29.83,NE,36,0.0,0.0,73,0.00,,---,0.00,VWS V14.01,2013-06-13 04:02:00,
2013-06-13 00:03:00,61.2,52.5,29.83,NE,36,0.0,0.0,73,0.00,,---,0.00,VWS V14.01,2013-06-13 04:03:00,
2013-06-13 00:08:00,61.2,52.5,29.83,NE,36,0.0,0.0,73,0.00,,---,0.00,VWS V14.01,2013-06-13 04:08:00,
2013-06-13 00:13:00,61.2,52.5,29.83,NE,36,0.0,0.0,73,0.00,,---,0.00,VWS V14.01,2013-06-13 04:13:00,
2013-06-13 00:15:00,61.2,52.5,29.83,NE,36,0.0,0.0,73,0.00,,---,0.00,VWS V14.01,2013-06-13 04:15:00,
2013-06-13 00:18:00,61.1,52.4,29.83,NE,36,0.0,0.0,73,0.00,,---,0.00,VWS V14.01,2013-06-13 04:18:00,
2013-06-13 00:23:00,61.2,52.5,29.83,NE,36,0.0,0.0,73,0.00,,---,0.00,VWS V14.01,2013-06-13 04:23:00,
2013-06-13 00:28:00,61.2,52.5,29.83,NE,36,0.0,0.0,73,0.00,,---,0.00,VWS V14.01,2013-06-13 04:28:00,
2013-06-13 00:30:00,61.1,52.4,29.83,NE,36,0.0,0.0,73,0.00,,---,0.00,VWS V14.01,2013-06-13 04:30:00,
2013-06-13 00:33:00,61.0,52.3,29.83,NE,36,0.0,0.0,73,0.00,,---,0.00,VWS V14.01,2013-06-13 04:33:00,
2013-06-13 00:39:00,60.8,52.1,29.84,NE,36,0.0,0.0,73,0.00,,---,0.00,VWS V14.01,2013-06-13 04:39:00,
2013-06-13 00:44:00,60.5,51.8,29.83,NE,36,0.0,0.0,73,0.00,,---,0.00,VWS V14.01,2013-06-13 04:44:00,
2013-06-13 00:45:00,60.4,51.7,29.83,NE,36,0.0,0.0,73,0.00,,---,0.00,VWS V14.01,2013-06-13 04:45:00,
2013-06-13 00:49:00,60.3,51.6,29.83,NE,36,0.0,0.0,73,0.00,,---,0.00,VWS V14.01,2013-06-13 04:49:00,
2013-06-13 00:54:00,60.3,52.0,29.83,NE,36,0.0,0.0,74,0.00,,---,0.00,VWS V14.01,2013-06-13 04:54:00,
2013-06-13 00:59:00,60.1,51.8,29.82,NE,36,0.0,0.0,74,0.00,,---,0.00,VWS V14.01,2013-06-13 04:59:00,
2013-06-13 01:00:00,60.1,51.8,29.82,NE,36,0.0,0.0,74,0.00,,---,0.00,VWS V14.01,2013-06-13 05:00:00,
2013-06-13 01:04:00,60.0,51.7,29.82,NE,36,0.0,0.0,74,0.00,,---,0.00,VWS V14.01,2013-06-13 05:04:00,
2013-06-13 01:09:00,60.1,51.8,29.82,NE,36,0.0,0.0,74,0.00,,---,0.00,VWS V14.01,2013-06-13 05:09:00,
2013-06-13 01:14:00,60.5,52.2,29.81,NE,36,0.0,0.0,74,0.00,,---,0.00,VWS V14.01,2013-06-13 05:14:00,
2013-06-13 01:15:00,60.6,52.3,29.81,NE,36,0.0,0.0,74,0.00,,---,0.00,VWS V14.01,2013-06-13 05:15:00,
2013-06-13 01:19:00,60.8,52.5,29.81,NE,36,0.0,0.0,74,0.00,,---,0.00,VWS V14.01,2013-06-13 05:19:00,
2013-06-13 01:24:00,60.9,52.6,29.81,NE,36,0.0,0.0,74,0.00,,---,0.00,VWS V14.01,2013-06-13 05:24:00,
2013-06-13 01:29:00,60.7,52.4,29.81,NE,36,0.0,0.0,74,0.00,,---,0.00,VWS V14.01,2013-06-13 05:29:00,
2013-06-13 01:30:00,60.6,52.3,29.80,NE,36,0.0,0.0,74,0.00,,---,0.00,VWS V14.01,2013-06-13 05:30:00,
2013-06-13 01:34:00,60.5,52.2,29.80,NE,36,0.0,0.0,74,0.00,,---,0.00,VWS V14.01,2013-06-13 05:34:00,
2013-06-13 01:39:00,60.5,52.2,29.80,NE,36,0.0,0.0,74,0.00,,---,0.00,VWS V14.01,2013-06-13 05:39:00,
2013-06-13 01:44:00,60.2,51.9,29.81,NE,36,0.0,0.0,74,0.00,,---,0.00,VWS V14.01,2013-06-13 05:44:00,
2013-06-13 01:45:00,60.1,51.8,29.81,NE,36,0.0,0.0,74,0.00,,---,0.00,VWS V14.01,2013-06-13 05:45:00,
2013-06-13 01:49:00,60.0,51.7,29.80,NE,36,0.0,0.0,74,0.00,,---,0.00,VWS V14.01,2013-06-13 05:49:00,
2013-06-13 01:54:00,60.0,51.7,29.80,NE,36,0.0,0.0,74,0.00,,---,0.00,VWS V14.01,2013-06-13 05:54:00,
2013-06-13 01:59:00,60.0,51.7,29.80,NE,36,0.0,0.0,74,0.00,,---,0.00,VWS V14.01,2013-06-13 05:59:00,
2013-06-13 02:00:00,60.0,51.7,29.80,NE,36,0.0,0.0,74,0.00,,---,0.00,VWS V14.01,2013-06-13 06:00:00,
2013-06-13 02:04:00,60.0,51.7,29.80,NE,36,0.0,0.0,74,0.00,,---,0.00,VWS V14.01,2013-06-13 06:04:00,
2013-06-13 02:09:00,60.0,51.7,29.80,NE,36,0.0,0.0,74,0.00,,---,0.00,VWS V14.01,2013-06-13 06:09:00,
2013-06-13 02:14:00,60.0,51.7,29.81,NE,36,0.0,0.0,74,0.00,,---,0.00,VWS V14.01,2013-06-13 06:14:00,
2013-06-13 02:15:00,60.0,51.7,29.81,NE,36,0.0,0.0,74,0.00,,---,0.00,VWS V14.01,2013-06-13 06:15:00,
2013-06-13 02:19:00,59.9,51.6,29.80,NE,36,0.0,0.0,74,0.00,,---,0.00,VWS V14.01,2013-06-13 06:19:00,
2013-06-13 02:24:00,59.7,51.4,29.80,NE,36,0.0,0.0,74,0.00,,---,0.00,VWS V14.01,2013-06-13 06:24:00,
2013-06-13 02:29:00,59.5,51.2,29.80,NE,36,0.0,0.0,74,0.00,,---,0.00,VWS V14.01,2013-06-13 06:29:00,
2013-06-13 02:30:00,59.5,51.2,29.80,NE,36,0.0,0.0,74,0.00,,---,0.00,VWS V14.01,2013-06-13 06:30:00,
2013-06-13 02:34:00,59.3,51.4,29.80,NE,36,0.0,0.0,75,0.00,,---,0.00,VWS V14.01,2013-06-13 06:34:00,
2013-06-13 02:39:00,59.1,51.2,29.80,NE,36,0.0,0.0,75,0.00,,---,0.00,VWS V14.01,2013-06-13 06:39:00,
2013-06-13 02:44:00,59.2,51.3,29.80,NE,36,0.0,0.0,75,0.00,,---,0.00,VWS V14.01,2013-06-13 06:44:00,
2013-06-13 02:45:00,59.3,51.4,29.79,NE,36,0.0,0.0,75,0.00,,---,0.00,VWS V14.01,2013-06-13 06:45:00,
2013-06-13 02:50:00,59.4,51.5,29.79,NE,36,0.0,0.0,75,0.00,,---,0.00,VWS V14.01,2013-06-13 06:50:00,
2013-06-13 02:55:00,59.4,51.5,29.79,NE,36,0.0,0.0,75,0.00,,---,0.00,VWS V14.01,2013-06-13 06:55:00,
2013-06-13 03:00:00,59.5,51.6,29.79,NE,36,0.0,0.0,75,0.00,,---,0.00,VWS V14.01,2013-06-13 07:00:00,
2013-06-13 03:05:00,59.3,51.4,29.80,NE,36,0.0,0.0,75,0.00,,---,0.00,VWS V14.01,2013-06-13 07:05:00,
2013-06-13 03:10:00,59.0,51.1,29.81,NE,36,0.0,0.0,75,0.00,,---,0.00,VWS V14.01,2013-06-13 07:10:00,
2013-06-13 03:15:00,59.0,51.1,29.80,NE,36,0.0,0.0,75,0.00,,---,0.00,VWS V14.01,2013-06-13 07:15:00,
2013-06-13 03:20:00,59.4,51.5,29.80,NE,36,0.0,0.0,75,0.00,,---,0.00,VWS V14.01,2013-06-13 07:20:00,
2013-06-13 03:25:00,59.6,51.7,29.80,NE,36,0.0,0.0,75,0.00,,---,0.00,VWS V14.01,2013-06-13 07:25:00,
2013-06-13 03:30:00,59.9,52.0,29.80,NE,36,0.0,0.0,75,0.00,,---,0.00,VWS V14.01,2013-06-13 07:30:00,
2013-06-13 03:31:00,59.9,52.0,29.80,NE,36,0.0,0.0,75,0.00,,---,0.00,VWS V14.01,2013-06-13 07:31:00,
2013-06-13 03:36:00,60.2,52.3,29.80,NE,36,0.0,0.0,75,0.00,,---,0.00,VWS V14.01,2013-06-13 07:36:00,
2013-06-13 03:41:00,60.3,52.3,29.80,NE,36,0.0,0.0,75,0.00,,---,0.00,VWS V14.01,2013-06-13 07:41:00,
2013-06-13 03:45:00,60.2,52.3,29.80,NE,36,0.0,0.0,75,0.00,,---,0.00,VWS V14.01,2013-06-13 07:45:00,
2013-06-13 03:46:00,60.3,52.3,29.80,NE,36,0.0,0.0,75,0.00,,---,0.00,VWS V14.01,2013-06-13 07:46:00,
2013-06-13 03:51:00,60.3,52.3,29.80,NE,36,0.0,0.0,75,0.00,,---,0.00,VWS V14.01,2013-06-13 07:51:00,
2013-06-13 03:56:00,60.3,52.3,29.79,NE,36,0.0,0.0,75,0.00,,---,0.00,VWS V14.01,2013-06-13 07:56:00,
2013-06-13 04:00:00,60.5,52.5,29.79,NE,36,0.0,0.0,75,0.00,,---,0.00,VWS V14.01,2013-06-13 08:00:00,
2013-06-13 04:01:00,60.5,52.5,29.79,NE,36,0.0,0.0,75,0.00,,---,0.00,VWS V14.01,2013-06-13 08:01:00,
2013-06-13 04:06:00,61.0,53.0,29.78,NE,36,0.0,1.0,75,0.00,,---,0.00,VWS V14.01,2013-06-13 08:06:00,
2013-06-13 04:11:00,61.3,53.0,29.79,NE,36,0.0,1.0,74,0.00,,---,0.00,VWS V14.01,2013-06-13 08:11:00,
2013-06-13 04:15:00,61.5,53.2,29.78,NE,36,0.0,1.0,74,0.00,,---,0.00,VWS V14.01,2013-06-13 08:15:00,
2013-06-13 04:16:00,61.5,53.2,29.78,NE,36,0.0,1.0,74,0.00,,---,0.00,VWS V14.01,2013-06-13 08:16:00,
2013-06-13 04:21:00,61.6,53.2,29.78,NE,36,0.0,0.0,74,0.00,,---,0.00,VWS V14.01,2013-06-13 08:21:00,
2013-06-13 04:26:00,61.5,53.2,29.78,NE,36,0.0,0.0,74,0.00,,---,0.00,VWS V14.01,2013-06-13 08:26:00,
2013-06-13 04:30:00,61.5,53.2,29.78,NE,36,0.0,0.0,74,0.00,,---,0.00,VWS V14.01,2013-06-13 08:30:00,
2013-06-13 04:31:00,61.5,53.2,29.78,NE,36,0.0,0.0,74,0.00,,---,0.00,VWS V14.01,2013-06-13 08:31:00,
2013-06-13 04:36:00,61.6,53.2,29.77,NE,36,0.0,0.0,74,0.00,,---,0.00,VWS V14.01,2013-06-13 08:36:00,
2013-06-13 04:41:00,61.9,53.5,29.77,NE,36,0.0,0.0,74,0.00,,---,0.00,VWS V14.01,2013-06-13 08:41:00,
2013-06-13 04:45:00,62.0,53.3,29.77,NE,36,0.0,0.0,73,0.00,,---,0.00,VWS V14.01,2013-06-13 08:45:00,
2013-06-13 04:46:00,62.0,53.3,29.77,NE,36,0.0,0.0,73,0.00,,---,0.00,VWS V14.01,2013-06-13 08:46:00,
2013-06-13 04:51:00,62.0,53.3,29.77,NE,36,0.0,0.0,73,0.00,,---,0.00,VWS V14.01,2013-06-13 08:51:00,
2013-06-13 04:56:00,61.8,53.4,29.78,NE,36,0.0,0.0,74,0.00,,---,0.00,VWS V14.01,2013-06-13 08:56:00,
2013-06-13 05:00:00,61.6,53.2,29.77,NE,36,0.0,0.0,74,0.00,,---,0.00,VWS V14.01,2013-06-13 09:00:00,
2013-06-13 05:01:00,61.6,53.2,29.78,NE,36,0.0,0.0,74,0.00,,---,0.00,VWS V14.01,2013-06-13 09:01:00,
2013-06-13 05:06:00,61.6,53.2,29.78,NE,36,0.0,0.0,74,0.00,,---,0.00,VWS V14.01,2013-06-13 09:06:00,
2013-06-13 05:11:00,61.6,53.2,29.78,NE,36,0.0,0.0,74,0.00,,---,0.00,VWS V14.01,2013-06-13 09:11:00,
2013-06-13 05:15:00,61.6,53.2,29.79,NE,36,0.0,1.0,74,0.00,,---,0.00,VWS V14.01,2013-06-13 09:15:00,
2013-06-13 05:16:00,61.6,53.2,29.79,NE,36,0.0,0.0,74,0.00,,---,0.00,VWS V14.01,2013-06-13 09:16:00,
2013-06-13 05:21:00,61.5,53.2,29.79,NE,36,0.0,0.0,74,0.00,,---,0.00,VWS V14.01,2013-06-13 09:21:00,
2013-06-13 05:26:00,61.5,53.2,29.79,NE,36,0.0,0.0,74,0.00,,---,0.00,VWS V14.01,2013-06-13 09:26:00,
2013-06-13 05:30:00,61.6,53.2,29.79,NE,36,0.0,0.0,74,0.01,,---,0.01,VWS V14.01,2013-06-13 09:30:00,
2013-06-13 05:31:00,61.6,53.2,29.79,NE,36,0.0,0.0,74,0.01,,---,0.01,VWS V14.01,2013-06-13 09:31:00,
2013-06-13 05:36:00,61.4,53.0,29.79,NE,36,0.0,0.0,74,0.02,,---,0.02,VWS V14.01,2013-06-13 09:36:00,
2013-06-13 05:41:00,61.4,53.0,29.78,NE,36,1.0,3.0,74,0.02,,---,0.02,VWS V14.01,2013-06-13 09:41:00,
2013-06-13 05:45:00,61.3,53.0,29.78,NE,36,0.0,3.0,74,0.03,,---,0.03,VWS V14.01,2013-06-13 09:45:00,
2013-06-13 05:47:00,61.3,53.0,29.78,NE,36,0.0,0.0,74,0.03,,---,0.03,VWS V14.01,2013-06-13 09:47:00,
2013-06-13 05:52:00,61.3,53.3,29.78,NE,36,0.0,1.0,75,0.03,,---,0.03,VWS V14.01,2013-06-13 09:52:00,
2013-06-13 05:57:00,61.2,53.2,29.77,NE,36,0.0,1.0,75,0.03,,---,0.03,VWS V14.01,2013-06-13 09:57:00,
2013-06-13 06:00:00,61.2,53.2,29.77,NE,36,0.0,1.0,75,0.03,,---,0.03,VWS V14.01,2013-06-13 10:00:00,
2013-06-13 06:02:00,61.2,53.2,29.77,NE,36,0.0,0.0,75,0.03,,---,0.03,VWS V14.01,2013-06-13 10:02:00,
2013-06-13 06:07:00,61.3,53.3,29.76,NE,36,0.0,3.0,75,0.03,,---,0.03,VWS V14.01,2013-06-13 10:07:00,
2013-06-13 06:12:00,61.3,53.3,29.76,NE,36,2.0,3.0,75,0.03,,---,0.03,VWS V14.01,2013-06-13 10:12:00,
2013-06-13 06:15:00,61.3,53.3,29.76,NE,37,0.0,3.0,75,0.03,,---,0.03,VWS V14.01,2013-06-13 10:15:00,
2013-06-13 06:17:00,61.3,53.3,29.76,NE,37,0.0,0.0,75,0.03,,---,0.03,VWS V14.01,2013-06-13 10:17:00,
2013-06-13 06:22:00,61.4,53.4,29.75,NE,36,0.0,3.0,75,0.03,,---,0.03,VWS V14.01,2013-06-13 10:22:00,
2013-06-13 06:27:00,61.4,53.4,29.75,NE,36,0.0,3.0,75,0.03,,---,0.03,VWS V14.01,2013-06-13 10:27:00,
2013-06-13 06:30:00,61.4,53.4,29.75,NE,37,0.0,3.0,75,0.03,,---,0.03,VWS V14.01,2013-06-13 10:30:00,
2013-06-13 06:32:00,61.4,53.4,29.75,NE,37,0.0,0.0,75,0.02,,---,0.03,VWS V14.01,2013-06-13 10:32:00,
2013-06-13 06:37:00,61.5,53.5,29.75,NE,37,0.0,0.0,75,0.02,,---,0.03,VWS V14.01,2013-06-13 10:37:00,
2013-06-13 06:42:00,61.5,53.5,29.75,NE,36,0.0,2.0,75,0.02,,---,0.03,VWS V14.01,2013-06-13 10:42:00,
2013-06-13 06:45:00,61.6,53.6,29.74,NE,36,0.0,2.0,75,0.02,,---,0.03,VWS V14.01,2013-06-13 10:45:00,
2013-06-13 06:47:00,61.6,53.6,29.74,NE,37,0.0,0.0,75,0.00,,---,0.03,VWS V14.01,2013-06-13 10:47:00,
2013-06-13 06:52:00,61.7,53.7,29.74,NE,37,0.0,0.0,75,0.00,,---,0.03,VWS V14.01,2013-06-13 10:52:00,
2013-06-13 06:57:00,61.9,53.9,29.74,NE,37,0.0,0.0,75,0.00,,---,0.03,VWS V14.01,2013-06-13 10:57:00,
2013-06-13 07:00:00,61.9,53.9,29.73,ESE,111,0.0,4.0,75,0.00,,---,0.03,VWS V14.01,2013-06-13 11:00:00,
2013-06-13 07:02:00,62.0,54.0,29.73,SE,142,4.0,5.0,75,0.00,,---,0.03,VWS V14.01,2013-06-13 11:02:00,
2013-06-13 07:07:00,62.2,54.2,29.73,SE,128,0.0,5.0,75,0.00,,---,0.03,VWS V14.01,2013-06-13 11:07:00,
2013-06-13 07:12:00,62.4,54.0,29.73,SE,128,0.0,5.0,74,0.00,,---,0.03,VWS V14.01,2013-06-13 11:12:00,
2013-06-13 07:15:00,62.6,54.6,29.74,ESE,119,0.0,5.0,75,0.00,,---,0.03,VWS V14.01,2013-06-13 11:15:00,
2013-06-13 07:17:00,62.6,54.6,29.73,ESE,119,0.0,0.0,75,0.00,,---,0.03,VWS V14.01,2013-06-13 11:17:00,
2013-06-13 07:22:00,62.7,54.3,29.74,ESE,119,0.0,0.0,74,0.00,,---,0.03,VWS V14.01,2013-06-13 11:22:00,
2013-06-13 07:27:00,63.0,54.6,29.73,SE,130,0.0,4.0,74,0.01,,---,0.04,VWS V14.01,2013-06-13 11:27:00,
2013-06-13 07:30:00,63.1,54.7,29.74,SE,128,0.0,4.0,74,0.01,,---,0.04,VWS V14.01,2013-06-13 11:30:00,
2013-06-13 07:32:00,63.1,54.7,29.74,SE,128,0.0,0.0,74,0.01,,---,0.04,VWS V14.01,2013-06-13 11:32:00,
2013-06-13 07:37:00,63.2,54.4,29.73,SE,128,4.0,4.0,73,0.01,,---,0.04,VWS V14.01,2013-06-13 11:37:00,
2013-06-13 07:42:00,62.8,54.4,29.72,SE,125,4.0,6.0,74,0.01,,---,0.04,VWS V14.01,2013-06-13 11:42:00,
2013-06-13 07:45:00,62.8,54.4,29.72,SSE,165,5.0,8.0,74,0.01,,---,0.04,VWS V14.01,2013-06-13 11:45:00,
2013-06-13 07:47:00,62.9,54.1,29.72,SE,141,2.0,7.0,73,0.01,,---,0.04,VWS V14.01,2013-06-13 11:47:00,
2013-06-13 07:52:00,63.0,54.2,29.73,SSE,162,0.0,7.0,73,0.01,,---,0.04,VWS V14.01,2013-06-13 11:52:00,
2013-06-13 07:57:00,63.0,54.2,29.74,SSW,205,0.0,7.0,73,0.01,,---,0.04,VWS V14.01,2013-06-13 11:57:00,
2013-06-13 08:00:00,63.0,54.2,29.74,SSE,153,4.0,7.0,73,0.01,,---,0.04,VWS V14.01,2013-06-13 12:00:00,
2013-06-13 08:03:00,63.0,54.2,29.73,SE,134,0.0,5.0,73,0.01,,---,0.04,VWS V14.01,2013-06-13 12:03:00,
2013-06-13 08:08:00,63.1,54.3,29.73,SE,142,0.0,5.0,73,0.03,,---,0.06,VWS V14.01,2013-06-13 12:08:00,
2013-06-13 08:13:00,63.2,54.4,29.73,SE,142,0.0,5.0,73,0.03,,---,0.06,VWS V14.01,2013-06-13 12:13:00,
2013-06-13 08:15:00,63.3,54.5,29.73,SE,142,0.0,5.0,73,0.03,,---,0.06,VWS V14.01,2013-06-13 12:15:00,
2013-06-13 08:18:00,63.3,54.5,29.73,SE,142,0.0,0.0,73,0.03,,---,0.06,VWS V14.01,2013-06-13 12:18:00,
2013-06-13 08:23:00,63.4,54.6,29.73,SE,142,0.0,1.0,73,0.03,,---,0.06,VWS V14.01,2013-06-13 12:23:00,
2013-06-13 08:28:00,63.2,54.4,29.72,ESE,117,0.0,4.0,73,0.03,,---,0.06,VWS V14.01,2013-06-13 12:28:00,
2013-06-13 08:30:00,63.3,54.5,29.72,East,98,6.0,6.0,73,0.03,,---,0.06,VWS V14.01,2013-06-13 12:30:00,
2013-06-13 08:33:00,63.4,54.6,29.72,ESE,104,3.0,6.0,73,0.02,,---,0.06,VWS V14.01,2013-06-13 12:33:00,
2013-06-13 08:38:00,63.6,54.8,29.72,ESE,104,2.0,6.0,73,0.02,,---,0.06,VWS V14.01,2013-06-13 12:38:00,
2013-06-13 08:43:00,63.7,54.5,29.72,ESE,104,0.0,6.0,72,0.02,,---,0.06,VWS V14.01,2013-06-13 12:43:00,
2013-06-13 08:45:00,63.8,54.6,29.71,East,96,3.0,6.0,72,0.02,,---,0.06,VWS V14.01,2013-06-13 12:45:00,
2013-06-13 08:48:00,63.7,54.5,29.71,ESE,107,4.0,6.0,72,0.02,,---,0.06,VWS V14.01,2013-06-13 12:48:00,
2013-06-13 08:53:00,63.7,54.5,29.71,East,97,0.0,6.0,72,0.02,,---,0.06,VWS V14.01,2013-06-13 12:53:00,
2013-06-13 08:58:00,63.8,54.6,29.71,East,86,0.0,6.0,72,0.02,,---,0.06,VWS V14.01,2013-06-13 12:58:00,
2013-06-13 09:00:00,63.9,54.7,29.71,East,87,0.0,6.0,72,0.02,,---,0.06,VWS V14.01,2013-06-13 13:00:00,
2013-06-13 09:03:00,63.9,54.7,29.71,East,87,0.0,1.0,72,0.02,,---,0.06,VWS V14.01,2013-06-13 13:03:00,
2013-06-13 09:08:00,64.0,54.8,29.70,East,87,0.0,3.0,72,0.02,,---,0.06,VWS V14.01,2013-06-13 13:08:00,
2013-06-13 09:13:00,64.0,54.8,29.69,East,101,0.0,5.0,72,0.02,,---,0.06,VWS V14.01,2013-06-13 13:13:00,
2013-06-13 09:15:00,64.1,54.9,29.70,ESE,107,0.0,5.0,72,0.02,,---,0.06,VWS V14.01,2013-06-13 13:15:00,
2013-06-13 09:18:00,64.1,54.9,29.71,SSE,152,1.0,3.0,72,0.00,,---,0.06,VWS V14.01,2013-06-13 13:18:00,
2013-06-13 09:23:00,63.8,54.6,29.71,SSE,158,0.0,3.0,72,0.01,,---,0.07,VWS V14.01,2013-06-13 13:23:00,
2013-06-13 09:28:00,63.6,54.4,29.71,ESE,102,0.0,3.0,72,0.02,,---,0.08,VWS V14.01,2013-06-13 13:28:00,
2013-06-13 09:30:00,63.5,54.3,29.69,East,80,6.0,7.0,72,0.02,,---,0.08,VWS V14.01,2013-06-13 13:30:00,
2013-06-13 09:33:00,63.4,54.6,29.69,East,101,5.0,6.0,73,0.03,,---,0.09,VWS V14.01,2013-06-13 13:33:00,
2013-06-13 09:38:00,63.3,54.5,29.70,SE,125,4.0,6.0,73,0.04,,---,0.10,VWS V14.01,2013-06-13 13:38:00,
2013-06-13 09:43:00,63.4,54.6,29.66,ENE,76,5.0,8.0,73,0.04,,---,0.10,VWS V14.01,2013-06-13 13:43:00,
2013-06-13 09:45:00,63.4,54.6,29.66,East,90,1.0,8.0,73,0.04,,---,0.10,VWS V14.01,2013-06-13 13:45:00,
2013-06-13 09:48:00,63.4,54.6,29.67,SE,132,6.0,7.0,73,0.04,,---,0.10,VWS V14.01,2013-06-13 13:48:00,
2013-06-13 09:53:00,63.6,54.8,29.68,ESE,117,4.0,9.0,73,0.04,,---,0.10,VWS V14.01,2013-06-13 13:53:00,
2013-06-13 09:59:00,63.8,54.6,29.68,East,81,5.0,9.0,72,0.04,,---,0.10,VWS V14.01,2013-06-13 13:59:00,
2013-06-13 10:00:00,63.9,54.7,29.67,East,79,2.0,9.0,72,0.04,,---,0.10,VWS V14.01,2013-06-13 14:00:00,
2013-06-13 10:04:00,63.8,54.6,29.66,ENE,71,3.0,6.0,72,0.04,,---,0.10,VWS V14.01,2013-06-13 14:04:00,
2013-06-13 10:09:00,63.6,54.4,29.67,SE,136,3.0,6.0,72,0.05,,---,0.11,VWS V14.01,2013-06-13 14:09:00,
2013-06-13 10:14:00,63.4,54.2,29.66,ENE,76,4.0,6.0,72,0.05,,---,0.11,VWS V14.01,2013-06-13 14:14:00,
2013-06-13 10:15:00,63.2,54.0,29.65,East,81,6.0,8.0,72,0.06,,---,0.12,VWS V14.01,2013-06-13 14:15:00,
2013-06-13 10:19:00,62.9,53.8,29.65,East,101,2.0,8.0,72,0.07,,---,0.13,VWS V14.01,2013-06-13 14:19:00,
2013-06-13 10:24:00,62.6,53.5,29.67,South,171,3.0,11.0,72,0.08,,---,0.14,VWS V14.01,2013-06-13 14:24:00,
2013-06-13 10:29:00,62.3,53.5,29.67,SSW,205,0.0,11.0,73,0.10,,---,0.16,VWS V14.01,2013-06-13 14:29:00,
2013-06-13 10:30:00,62.2,53.5,29.67,ESE,111,2.0,11.0,73,0.11,,---,0.17,VWS V14.01,2013-06-13 14:30:00,
2013-06-13 10:34:00,62.0,53.3,29.67,East,90,2.0,5.0,73,0.10,,---,0.18,VWS V14.01,2013-06-13 14:34:00,
2013-06-13 10:39:00,61.7,53.0,29.69,WSW,246,3.0,5.0,73,0.12,,---,0.20,VWS V14.01,2013-06-13 14:39:00,
2013-06-13 10:44:00,61.4,52.7,29.69,West,274,7.0,7.0,73,0.14,,---,0.22,VWS V14.01,2013-06-13 14:44:00,
2013-06-13 10:45:00,61.2,52.5,29.69,NNW,340,5.0,11.0,73,0.15,,---,0.23,VWS V14.01,2013-06-13 14:45:00,
2013-06-13 10:49:00,61.0,52.3,29.67,East,101,6.0,7.0,73,0.15,,---,0.25,VWS V14.01,2013-06-13 14:49:00,
2013-06-13 10:54:00,60.7,52.4,29.65,SE,136,5.0,11.0,74,0.17,,---,0.27,VWS V14.01,2013-06-13 14:54:00,
2013-06-13 10:59:00,60.7,52.4,29.66,SE,125,10.0,11.0,74,0.19,,---,0.29,VWS V14.01,2013-06-13 14:59:00,
2013-06-13 11:00:00,60.7,52.4,29.65,SSE,150,8.0,16.0,74,0.20,,---,0.30,VWS V14.01,2013-06-13 15:00:00,
2013-06-13 11:04:00,60.7,52.4,29.64,SE,142,8.0,13.0,74,0.21,,---,0.31,VWS V14.01,2013-06-13 15:04:00,
2013-06-13 11:09:00,60.8,52.5,29.63,ESE,105,10.0,23.0,74,0.23,,---,0.33,VWS V14.01,2013-06-13 15:09:00,
2013-06-13 11:14:00,60.8,52.5,29.63,East,86,9.0,23.0,74,0.24,,---,0.34,VWS V14.01,2013-06-13 15:14:00,
2013-06-13 11:15:00,60.9,52.6,29.63,ESE,109,7.0,23.0,74,0.25,,---,0.35,VWS V14.01,2013-06-13 15:15:00,
2013-06-13 11:19:00,61.0,52.3,29.62,ESE,106,5.0,11.0,73,0.24,,---,0.36,VWS V14.01,2013-06-13 15:19:00,
2013-06-13 11:24:00,61.1,52.4,29.62,SE,126,8.0,11.0,73,0.26,,---,0.38,VWS V14.01,2013-06-13 15:24:00,
2013-06-13 11:29:00,61.4,52.7,29.62,South,190,1.0,11.0,73,0.27,,---,0.39,VWS V14.01,2013-06-13 15:29:00,
2013-06-13 11:30:00,61.6,53.2,29.62,ENE,74,3.0,11.0,74,0.28,,---,0.40,VWS V14.01,2013-06-13 15:30:00,
2013-06-13 11:34:00,61.9,53.2,29.63,ESE,117,7.0,7.0,73,0.23,,---,0.40,VWS V14.01,2013-06-13 15:34:00,
2013-06-13 11:39:00,62.4,53.6,29.64,East,91,0.0,9.0,73,0.25,,---,0.42,VWS V14.01,2013-06-13 15:39:00,
2013-06-13 11:44:00,63.0,54.2,29.64,SSE,153,2.0,9.0,73,0.26,,---,0.43,VWS V14.01,2013-06-13 15:44:00,
2013-06-13 11:45:00,63.1,54.3,29.64,SSE,153,0.0,9.0,73,0.26,,---,0.43,VWS V14.01,2013-06-13 15:45:00,
2013-06-13 11:49:00,63.2,54.4,29.64,SSE,150,3.0,5.0,73,0.21,,---,0.44,VWS V14.01,2013-06-13 15:49:00,
2013-06-13 11:54:00,63.2,54.4,29.63,SE,133,6.0,9.0,73,0.22,,---,0.45,VWS V14.01,2013-06-13 15:54:00,
2013-06-13 11:59:00,63.2,54.4,29.62,SE,128,5.0,9.0,73,0.22,,---,0.45,VWS V14.01,2013-06-13 15:59:00,
2013-06-13 12:00:00,63.3,54.5,29.61,East,85,5.0,9.0,73,0.22,,---,0.45,VWS V14.01,2013-06-13 16:00:00,
2013-06-13 12:05:00,63.5,54.7,29.60,ENE,76,9.0,9.0,73,0.15,,---,0.45,VWS V14.01,2013-06-13 16:05:00,
2013-06-13 12:10:00,63.4,54.6,29.58,ESE,103,8.0,12.0,73,0.15,,---,0.45,VWS V14.01,2013-06-13 16:10:00,
2013-06-13 12:15:00,63.4,54.6,29.57,ENE,69,12.0,15.0,73,0.15,,---,0.45,VWS V14.01,2013-06-13 16:15:00,
2013-06-13 12:20:00,63.6,54.8,29.58,SE,130,4.0,14.0,73,0.10,,---,0.45,VWS V14.01,2013-06-13 16:20:00,
2013-06-13 12:25:00,64.0,55.2,29.58,SE,139,3.0,14.0,73,0.10,,---,0.45,VWS V14.01,2013-06-13 16:25:00,
2013-06-13 12:30:00,64.0,55.2,29.60,SE,128,4.0,15.0,73,0.10,,---,0.45,VWS V14.01,2013-06-13 16:30:00,
2013-06-13 12:35:00,64.0,54.8,29.60,SE,145,5.0,13.0,72,0.05,,---,0.45,VWS V14.01,2013-06-13 16:35:00,
2013-06-13 12:40:00,63.6,54.4,29.60,East,88,2.0,14.0,72,0.05,,---,0.45,VWS V14.01,2013-06-13 16:40:00,
2013-06-13 12:45:00,63.5,54.3,29.59,East,87,11.0,14.0,72,0.05,,---,0.45,VWS V14.01,2013-06-13 16:45:00,
2013-06-13 12:50:00,63.5,54.3,29.59,East,92,7.0,8.0,72,0.02,,---,0.45,VWS V14.01,2013-06-13 16:50:00,
2013-06-13 12:55:00,63.6,54.4,29.58,ESE,123,5.0,15.0,72,0.02,,---,0.45,VWS V14.01,2013-06-13 16:55:00,
2013-06-13 13:00:00,63.8,54.6,29.58,ENE,69,8.0,15.0,72,0.02,,---,0.45,VWS V14.01,2013-06-13 17:00:00,
2013-06-13 13:05:00,64.0,54.8,29.58,East,88,11.0,15.0,72,0.00,,---,0.45,VWS V14.01,2013-06-13 17:05:00,
2013-06-13 13:10:00,64.0,54.8,29.58,SE,128,5.0,15.0,72,0.00,,---,0.45,VWS V14.01,2013-06-13 17:10:00,
2013-06-13 13:15:00,64.1,54.9,29.58,ESE,123,4.0,15.0,72,0.00,,---,0.45,VWS V14.01,2013-06-13 17:15:00,
2013-06-13 13:20:00,64.2,55.0,29.58,ESE,116,5.0,8.0,72,0.00,,---,0.45,VWS V14.01,2013-06-13 17:20:00,
2013-06-13 13:25:00,64.3,55.1,29.58,ESE,113,8.0,9.0,72,0.00,,---,0.45,VWS V14.01,2013-06-13 17:25:00,
2013-06-13 13:30:00,64.4,55.2,29.58,East,82,7.0,9.0,72,0.00,,---,0.45,VWS V14.01,2013-06-13 17:30:00,
2013-06-13 13:35:00,64.5,55.3,29.58,ESE,117,2.0,10.0,72,0.00,,---,0.45,VWS V14.01,2013-06-13 17:35:00,
2013-06-13 13:40:00,64.6,55.4,29.57,East,99,3.0,10.0,72,0.00,,---,0.45,VWS V14.01,2013-06-13 17:40:00,
2013-06-13 13:45:00,64.8,55.6,29.56,ESE,105,4.0,10.0,72,0.00,,---,0.45,VWS V14.01,2013-06-13 17:45:00,
2013-06-13 13:50:00,64.9,55.7,29.56,East,80,9.0,10.0,72,0.00,,---,0.45,VWS V14.01,2013-06-13 17:50:00,
2013-06-13 13:55:00,65.1,55.9,29.56,East,101,6.0,11.0,72,0.00,,---,0.45,VWS V14.01,2013-06-13 17:55:00,
2013-06-13 14:00:00,65.1,55.9,29.56,ESE,122,5.0,11.0,72,0.00,,---,0.45,VWS V14.01,2013-06-13 18:00:00,
2013-06-13 14:01:00,65.1,55.9,29.56,SE,136,3.0,11.0,72,0.00,,---,0.45,VWS V14.01,2013-06-13 18:01:00,
2013-06-13 14:06:00,65.0,55.8,29.55,NE,55,9.0,12.0,72,0.00,,---,0.45,VWS V14.01,2013-06-13 18:06:00,
2013-06-13 14:11:00,64.6,55.4,29.55,ESE,122,2.0,12.0,72,0.00,,---,0.45,VWS V14.01,2013-06-13 18:11:00,
2013-06-13 14:15:00,64.4,55.2,29.55,East,85,6.0,12.0,72,0.00,,---,0.45,VWS V14.01,2013-06-13 18:15:00,
2013-06-13 14:16:00,64.4,55.2,29.55,ENE,59,5.0,12.0,72,0.00,,---,0.45,VWS V14.01,2013-06-13 18:16:00,
2013-06-13 14:21:00,64.5,55.3,29.54,ENE,68,5.0,13.0,72,0.00,,---,0.45,VWS V14.01,2013-06-13 18:21:00,
2013-06-13 14:26:00,64.4,55.2,29.54,ENE,71,5.0,13.0,72,0.00,,---,0.45,VWS V14.01,2013-06-13 18:26:00,
2013-06-13 14:30:00,64.5,55.3,29.53,ENE,67,10.0,19.0,72,0.00,,---,0.45,VWS V14.01,2013-06-13 18:30:00,
2013-06-13 14:31:00,64.5,55.3,29.53,ESE,104,11.0,19.0,72,0.00,,---,0.45,VWS V14.01,2013-06-13 18:31:00,
2013-06-13 14:36:00,64.5,55.3,29.53,ENE,69,8.0,15.0,72,0.00,,---,0.45,VWS V14.01,2013-06-13 18:36:00,
2013-06-13 14:41:00,64.4,55.6,29.54,East,96,5.0,15.0,73,0.00,,---,0.45,VWS V14.01,2013-06-13 18:41:00,
2013-06-13 14:45:00,64.4,55.6,29.54,ENE,74,9.0,15.0,73,0.00,,---,0.45,VWS V14.01,2013-06-13 18:45:00,
2013-06-13 14:46:00,64.4,55.6,29.54,ENE,73,8.0,15.0,73,0.00,,---,0.45,VWS V14.01,2013-06-13 18:46:00,
2013-06-13 14:51:00,64.4,55.6,29.54,ESE,116,2.0,10.0,73,0.00,,---,0.45,VWS V14.01,2013-06-13 18:51:00,
2013-06-13 14:56:00,64.4,55.9,29.55,ESE,106,5.0,10.0,74,0.00,,---,0.45,VWS V14.01,2013-06-13 18:56:00,
2013-06-13 15:00:00,64.4,55.9,29.55,ENE,73,5.0,11.0,74,0.00,,---,0.45,VWS V14.01,2013-06-13 19:00:00,
2013-06-13 15:01:00,64.4,55.9,29.55,ENE,73,5.0,11.0,74,0.00,,---,0.45,VWS V14.01,2013-06-13 19:01:00,
2013-06-13 15:06:00,64.2,55.8,29.55,NE,55,11.0,11.0,74,0.00,,---,0.45,VWS V14.01,2013-06-13 19:06:00,
2013-06-13 15:11:00,64.0,55.6,29.55,East,85,5.0,13.0,74,0.00,,---,0.45,VWS V14.01,2013-06-13 19:11:00,
2013-06-13 15:15:00,64.0,55.2,29.55,East,86,6.0,13.0,73,0.00,,---,0.45,VWS V14.01,2013-06-13 19:15:00,
2013-06-13 15:16:00,64.0,55.2,29.55,East,90,3.0,6.0,73,0.00,,---,0.45,VWS V14.01,2013-06-13 19:16:00,
2013-06-13 15:21:00,64.2,55.8,29.55,East,83,6.0,10.0,74,0.00,,---,0.45,VWS V14.01,2013-06-13 19:21:00,
2013-06-13 15:26:00,64.2,55.8,29.55,ENE,74,4.0,13.0,74,0.00,,---,0.45,VWS V14.01,2013-06-13 19:26:00,
2013-06-13 15:30:00,64.2,55.8,29.55,East,88,5.0,13.0,74,0.00,,---,0.45,VWS V14.01,2013-06-13 19:30:00,
2013-06-13 15:31:00,64.2,55.8,29.55,East,97,2.0,5.0,74,0.00,,---,0.45,VWS V14.01,2013-06-13 19:31:00,
2013-06-13 15:36:00,64.2,55.8,29.55,ENE,69,4.0,10.0,74,0.00,,---,0.45,VWS V14.01,2013-06-13 19:36:00,
2013-06-13 15:41:00,64.1,55.3,29.54,ENE,63,4.0,10.0,73,0.00,,---,0.45,VWS V14.01,2013-06-13 19:41:00,
2013-06-13 15:45:00,64.1,55.3,29.54,ENE,74,7.0,10.0,73,0.00,,---,0.45,VWS V14.01,2013-06-13 19:45:00,
2013-06-13 15:46:00,64.1,55.3,29.54,East,85,6.0,10.0,73,0.00,,---,0.45,VWS V14.01,2013-06-13 19:46:00,
2013-06-13 15:51:00,64.1,55.3,29.54,ENE,67,4.0,10.0,73,0.00,,---,0.45,VWS V14.01,2013-06-13 19:51:00,
2013-06-13 15:56:00,64.2,55.8,29.53,ENE,77,2.0,10.0,74,0.00,,---,0.45,VWS V14.01,2013-06-13 19:56:00,
2013-06-13 16:00:00,64.0,55.6,29.53,ESE,103,14.0,15.0,74,0.00,,---,0.45,VWS V14.01,2013-06-13 20:00:00,
2013-06-13 16:01:00,64.0,55.6,29.53,East,90,8.0,14.0,74,0.00,,---,0.45,VWS V14.01,2013-06-13 20:01:00,
2013-06-13 16:06:00,63.8,55.4,29.52,SE,124,13.0,15.0,74,0.00,,---,0.45,VWS V14.01,2013-06-13 20:06:00,
2013-06-13 16:11:00,63.8,55.4,29.52,ESE,113,12.0,15.0,74,0.00,,---,0.45,VWS V14.01,2013-06-13 20:11:00,
2013-06-13 16:15:00,63.7,55.3,29.51,East,90,8.0,16.0,74,0.00,,---,0.45,VWS V14.01,2013-06-13 20:15:00,
2013-06-13 16:17:00,63.7,55.3,29.51,SE,138,6.0,9.0,74,0.00,,---,0.45,VWS V14.01,2013-06-13 20:17:00,
2013-06-13 16:22:00,63.7,55.3,29.51,ESE,123,7.0,10.0,74,0.00,,---,0.45,VWS V14.01,2013-06-13 20:22:00,
2013-06-13 16:27:00,63.7,55.3,29.50,ESE,108,7.0,14.0,74,0.00,,---,0.45,VWS V14.01,2013-06-13 20:27:00,
2013-06-13 16:30:00,63.9,55.5,29.50,ESE,120,5.0,14.0,74,0.00,,---,0.45,VWS V14.01,2013-06-13 20:30:00,
2013-06-13 16:32:00,64.0,55.6,29.50,SE,138,3.0,7.0,74,0.00,,---,0.45,VWS V14.01,2013-06-13 20:32:00,
2013-06-13 16:37:00,64.4,55.9,29.49,ESE,104,4.0,13.0,74,0.00,,---,0.45,VWS V14.01,2013-06-13 20:37:00,
2013-06-13 16:42:00,65.0,56.2,29.49,ENE,59,11.0,13.0,73,0.00,,---,0.45,VWS V14.01,2013-06-13 20:42:00,
2013-06-13 16:45:00,65.4,56.5,29.48,East,96,6.0,14.0,73,0.00,,---,0.45,VWS V14.01,2013-06-13 20:45:00,
2013-06-13 16:47:00,65.5,56.6,29.48,ENE,74,5.0,6.0,73,0.00,,---,0.45,VWS V14.01,2013-06-13 20:47:00,
2013-06-13 16:52:00,65.7,56.8,29.48,ENE,76,12.0,16.0,73,0.00,,---,0.45,VWS V14.01,2013-06-13 20:52:00,
2013-06-13 16:57:00,65.8,56.9,29.48,SE,136,5.0,16.0,73,0.00,,---,0.45,VWS V14.01,2013-06-13 20:57:00,
2013-06-13 17:00:00,66.0,57.1,29.47,ESE,117,5.0,16.0,73,0.00,,---,0.45,VWS V14.01,2013-06-13 21:00:00,
2013-06-13 17:02:00,66.0,57.1,29.47,SE,132,5.0,9.0,73,0.00,,---,0.45,VWS V14.01,2013-06-13 21:02:00,
2013-06-13 17:07:00,65.9,56.6,29.47,SSE,149,6.0,14.0,72,0.00,,---,0.45,VWS V14.01,2013-06-13 21:07:00,
2013-06-13 17:12:00,65.7,56.4,29.47,ESE,106,5.0,16.0,72,0.00,,---,0.45,VWS V14.01,2013-06-13 21:12:00,
2013-06-13 17:15:00,65.7,56.4,29.47,ESE,103,7.0,16.0,72,0.00,,---,0.45,VWS V14.01,2013-06-13 21:15:00,
2013-06-13 17:17:00,65.7,56.4,29.47,ESE,121,12.0,13.0,72,0.00,,---,0.45,VWS V14.01,2013-06-13 21:17:00,
2013-06-13 17:22:00,65.4,56.2,29.47,SE,126,5.0,14.0,72,0.00,,---,0.45,VWS V14.01,2013-06-13 21:22:00,
2013-06-13 17:27:00,65.2,56.0,29.47,ESE,119,8.0,14.0,72,0.00,,---,0.45,VWS V14.01,2013-06-13 21:27:00,
2013-06-13 17:30:00,65.1,55.9,29.47,SE,124,12.0,14.0,72,0.00,,---,0.45,VWS V14.01,2013-06-13 21:30:00,
2013-06-13 17:32:00,65.0,55.8,29.47,East,92,8.0,13.0,72,0.00,,---,0.45,VWS V14.01,2013-06-13 21:32:00,
2013-06-13 17:37:00,64.8,55.6,29.47,ENE,77,10.0,14.0,72,0.00,,---,0.45,VWS V14.01,2013-06-13 21:37:00,
2013-06-13 17:42:00,64.6,55.4,29.46,East,79,8.0,16.0,72,0.00,,---,0.45,VWS V14.01,2013-06-13 21:42:00,
2013-06-13 17:45:00,64.5,55.3,29.46,ENE,69,10.0,16.0,72,0.00,,---,0.45,VWS V14.01,2013-06-13 21:45:00,
2013-06-13 17:48:00,64.4,55.6,29.45,ESE,105,11.0,14.0,73,0.00,,---,0.45,VWS V14.01,2013-06-13 21:48:00,
2013-06-13 17:53:00,64.2,55.4,29.44,ENE,71,7.0,14.0,73,0.00,,---,0.45,VWS V14.01,2013-06-13 21:53:00,
2013-06-13 17:58:00,64.1,55.3,29.44,SE,126,13.0,14.0,73,0.00,,---,0.45,VWS V14.01,2013-06-13 21:58:00,
2013-06-13 18:00:00,64.0,55.2,29.44,SE,124,4.0,15.0,73,0.00,,---,0.45,VWS V14.01,2013-06-13 22:00:00,
2013-06-13 18:03:00,64.0,55.2,29.44,SE,144,13.0,15.0,73,0.00,,---,0.45,VWS V14.01,2013-06-13 22:03:00,
2013-06-13 18:08:00,63.7,54.9,29.44,East,100,6.0,17.0,73,0.00,,---,0.45,VWS V14.01,2013-06-13 22:08:00,
2013-06-13 18:13:00,63.7,54.9,29.44,ENE,71,7.0,17.0,73,0.00,,---,0.45,VWS V14.01,2013-06-13 22:13:00,
2013-06-13 18:15:00,63.8,55.0,29.44,East,98,10.0,17.0,73,0.00,,---,0.45,VWS V14.01,2013-06-13 22:15:00,
2013-06-13 18:18:00,63.7,54.9,29.44,SSE,158,5.0,14.0,73,0.00,,---,0.45,VWS V14.01,2013-06-13 22:18:00,
2013-06-13 18:23:00,63.7,54.9,29.45,East,101,7.0,14.0,73,0.00,,---,0.45,VWS V14.01,2013-06-13 22:23:00,
2013-06-13 18:28:00,63.6,55.2,29.44,SE,144,8.0,14.0,74,0.00,,---,0.45,VWS V14.01,2013-06-13 22:28:00,
2013-06-13 18:30:00,63.6,55.2,29.44,ESE,109,8.0,14.0,74,0.00,,---,0.45,VWS V14.01,2013-06-13 22:30:00,
2013-06-13 18:33:00,63.6,55.2,29.44,ENE,68,4.0,11.0,74,0.00,,---,0.45,VWS V14.01,2013-06-13 22:33:00,
2013-06-13 18:38:00,63.6,55.2,29.44,ESE,105,9.0,15.0,74,0.00,,---,0.45,VWS V14.01,2013-06-13 22:38:00,
2013-06-13 18:43:00,63.7,55.3,29.43,ESE,123,8.0,15.0,74,0.00,,---,0.45,VWS V14.01,2013-06-13 22:43:00,
2013-06-13 18:45:00,63.7,55.3,29.43,ENE,76,5.0,15.0,74,0.00,,---,0.45,VWS V14.01,2013-06-13 22:45:00,
2013-06-13 18:48:00,63.7,55.3,29.43,NNE,32,8.0,12.0,74,0.00,,---,0.45,VWS V14.01,2013-06-13 22:48:00,
2013-06-13 18:53:00,63.7,55.3,29.44,ENE,74,8.0,12.0,74,0.03,,---,0.48,VWS V14.01,2013-06-13 22:53:00,
2013-06-13 18:58:00,63.5,55.1,29.44,ENE,71,0.0,12.0,74,0.05,,---,0.50,VWS V14.01,2013-06-13 22:58:00,
2013-06-13 19:00:00,63.5,55.1,29.45,North,355,2.0,12.0,74,0.06,,---,0.51,VWS V14.01,2013-06-13 23:00:00,
2013-06-13 19:03:00,63.5,55.1,29.47,West,277,8.0,9.0,74,0.08,,---,0.53,VWS V14.01,2013-06-13 23:03:00,
2013-06-13 19:08:00,63.3,54.9,29.47,NE,53,1.0,9.0,74,0.13,,---,0.58,VWS V14.01,2013-06-13 23:08:00,
2013-06-13 19:13:00,63.3,55.2,29.46,ESE,105,4.0,9.0,75,0.18,,---,0.63,VWS V14.01,2013-06-13 23:13:00,
2013-06-13 19:15:00,63.3,55.2,29.45,East,85,5.0,9.0,75,0.19,,---,0.64,VWS V14.01,2013-06-13 23:15:00,
2013-06-13 19:18:00,63.3,55.2,29.46,ESE,112,0.0,5.0,75,0.21,,---,0.66,VWS V14.01,2013-06-13 23:18:00,
2013-06-13 19:23:00,63.3,55.6,29.47,NNW,328,0.0,5.0,76,0.23,,---,0.68,VWS V14.01,2013-06-13 23:23:00,
2013-06-13 19:28:00,63.3,55.6,29.47,NNW,328,0.0,5.0,76,0.23,,---,0.68,VWS V14.01,2013-06-13 23:28:00,
2013-06-13 19:30:00,63.3,55.6,29.47,North,360,1.0,5.0,76,0.23,,---,0.68,VWS V14.01,2013-06-13 23:30:00,
2013-06-13 19:33:00,63.3,55.6,29.46,NE,38,0.0,5.0,76,0.23,,---,0.68,VWS V14.01,2013-06-13 23:33:00,
2013-06-13 19:38:00,63.3,56.0,29.46,ENE,77,3.0,5.0,77,0.23,,---,0.68,VWS V14.01,2013-06-13 23:38:00,
2013-06-13 19:43:00,63.2,55.9,29.46,NE,48,4.0,7.0,77,0.23,,---,0.68,VWS V14.01,2013-06-13 23:43:00,
2013-06-13 19:45:00,63.2,55.9,29.46,NE,50,3.0,7.0,77,0.23,,---,0.68,VWS V14.01,2013-06-13 23:45:00,
2013-06-13 19:48:00,63.2,55.9,29.45,East,82,5.0,9.0,77,0.23,,---,0.68,VWS V14.01,2013-06-13 23:48:00,
2013-06-13 19:54:00,63.2,55.9,29.46,East,82,0.0,9.0,77,0.23,,---,0.68,VWS V14.01,2013-06-13 23:54:00,
2013-06-13 19:59:00,63.2,56.2,29.46,NE,44,0.0,9.0,78,0.23,,---,0.68,VWS V14.01,2013-06-13 23:59:00,
2013-06-13 20:00:00,63.2,56.2,29.45,ENE,61,2.0,9.0,78,0.23,,---,0.68,VWS V14.01,2013-06-14 00:00:00,
2013-06-13 20:04:00,63.2,55.9,29.46,North,5,5.0,7.0,77,0.17,,---,0.68,VWS V14.01,2013-06-14 00:04:00,
2013-06-13 20:09:00,63.0,56.0,29.46,NNE,32,0.0,8.0,78,0.19,,---,0.70,VWS V14.01,2013-06-14 00:09:00,
2013-06-13 20:14:00,62.7,55.8,29.46,NNE,26,8.0,10.0,78,0.21,,---,0.72,VWS V14.01,2013-06-14 00:14:00,
2013-06-13 20:15:00,62.6,55.7,29.46,NNE,19,6.0,10.0,78,0.22,,---,0.73,VWS V14.01,2013-06-14 00:15:00,
2013-06-13 20:19:00,62.4,55.5,29.47,North,360,4.0,8.0,78,0.11,,---,0.75,VWS V14.01,2013-06-14 00:19:00,
2013-06-13 20:24:00,62.2,55.3,29.46,NE,42,3.0,9.0,78,0.13,,---,0.77,VWS V14.01,2013-06-14 00:24:00,
2013-06-13 20:29:00,62.1,55.2,29.47,ENE,68,5.0,9.0,78,0.16,,---,0.80,VWS V14.01,2013-06-14 00:29:00,
2013-06-13 20:30:00,62.0,55.1,29.46,ENE,60,5.0,10.0,78,0.17,,---,0.81,VWS V14.01,2013-06-14 00:30:00,
2013-06-13 20:34:00,61.8,54.9,29.47,NE,36,8.0,16.0,78,0.15,,---,0.83,VWS V14.01,2013-06-14 00:34:00,
2013-06-13 20:39:00,61.5,54.6,29.46,ESE,115,3.0,16.0,78,0.17,,---,0.85,VWS V14.01,2013-06-14 00:39:00,
2013-06-13 20:44:00,61.2,54.3,29.46,NNE,23,4.0,16.0,78,0.20,,---,0.88,VWS V14.01,2013-06-14 00:44:00,
2013-06-13 20:45:00,61.1,54.2,29.46,NE,38,4.0,16.0,78,0.21,,---,0.89,VWS V14.01,2013-06-14 00:45:00,
2013-06-13 20:49:00,61.0,54.1,29.46,East,86,6.0,14.0,78,0.22,,---,0.90,VWS V14.01,2013-06-14 00:49:00,
2013-06-13 20:54:00,60.8,54.3,29.46,NNE,24,10.0,14.0,79,0.24,,---,0.92,VWS V14.01,2013-06-14 00:54:00,
2013-06-13 20:59:00,60.7,53.8,29.46,ENE,68,9.0,14.0,78,0.26,,---,0.94,VWS V14.01,2013-06-14 00:59:00,
2013-06-13 21:00:00,60.7,53.8,29.46,NE,46,7.0,14.0,78,0.27,,---,0.95,VWS V14.01,2013-06-14 01:00:00,
2013-06-13 21:04:00,60.6,53.7,29.46,East,82,10.0,12.0,78,0.28,,---,0.96,VWS V14.01,2013-06-14 01:04:00,
2013-06-13 21:09:00,60.5,53.6,29.46,ENE,74,4.0,12.0,78,0.30,,---,0.98,VWS V14.01,2013-06-14 01:09:00,
2013-06-13 21:14:00,60.4,53.9,29.46,ENE,69,10.0,17.0,79,0.32,,---,1.00,VWS V14.01,2013-06-14 01:14:00,
2013-06-13 21:15:00,60.4,53.9,29.46,ESE,109,7.0,17.0,79,0.32,,---,1.00,VWS V14.01,2013-06-14 01:15:00,
2013-06-13 21:19:00,60.3,53.8,29.46,ENE,67,10.0,16.0,79,0.28,,---,1.01,VWS V14.01,2013-06-14 01:19:00,
2013-06-13 21:24:00,60.2,53.7,29.47,ENE,73,8.0,16.0,79,0.30,,---,1.03,VWS V14.01,2013-06-14 01:24:00,
2013-06-13 21:29:00,60.2,53.7,29.47,ENE,64,13.0,17.0,79,0.32,,---,1.05,VWS V14.01,2013-06-14 01:29:00,
2013-06-13 21:30:00,60.1,53.6,29.47,East,82,3.0,17.0,79,0.32,,---,1.05,VWS V14.01,2013-06-14 01:30:00,
2013-06-13 21:34:00,60.1,53.6,29.47,NNE,26,10.0,16.0,79,0.25,,---,1.06,VWS V14.01,2013-06-14 01:34:00,
2013-06-13 21:39:00,60.0,53.1,29.47,NE,42,13.0,16.0,78,0.26,,---,1.07,VWS V14.01,2013-06-14 01:39:00,
2013-06-13 21:44:00,59.9,53.0,29.47,East,98,6.0,17.0,78,0.28,,---,1.09,VWS V14.01,2013-06-14 01:44:00,
2013-06-13 21:45:00,59.9,53.0,29.47,NE,40,10.0,18.0,78,0.28,,---,1.09,VWS V14.01,2013-06-14 01:45:00,
2013-06-13 21:49:00,59.8,52.9,29.47,NE,37,6.0,14.0,78,0.21,,---,1.10,VWS V14.01,2013-06-14 01:49:00,
2013-06-13 21:54:00,59.7,52.8,29.47,SE,146,10.0,14.0,78,0.22,,---,1.11,VWS V14.01,2013-06-14 01:54:00,
2013-06-13 22:00:00,59.5,52.6,29.47,NE,34,5.0,14.0,78,0.23,,---,1.12,VWS V14.01,2013-06-14 02:00:00,
2013-06-13 22:05:00,59.3,52.5,29.48,NE,49,4.0,20.0,78,0.18,,---,1.13,VWS V14.01,2013-06-14 02:05:00,
2013-06-13 22:10:00,59.0,52.2,29.48,ENE,76,4.0,20.0,78,0.19,,---,1.14,VWS V14.01,2013-06-14 02:10:00,
2013-06-13 22:15:00,59.0,52.2,29.48,ENE,58,12.0,20.0,78,0.20,,---,1.15,VWS V14.01,2013-06-14 02:15:00,
2013-06-13 22:20:00,58.9,52.1,29.48,ENE,57,3.0,18.0,78,0.16,,---,1.16,VWS V14.01,2013-06-14 02:20:00,
2013-06-13 22:25:00,58.7,51.9,29.48,ENE,71,3.0,19.0,78,0.16,,---,1.16,VWS V14.01,2013-06-14 02:25:00,
2013-06-13 22:30:00,58.5,51.7,29.48,ENE,59,13.0,19.0,78,0.17,,---,1.17,VWS V14.01,2013-06-14 02:30:00,
2013-06-13 22:35:00,58.4,51.2,29.48,ENE,68,4.0,21.0,77,0.12,,---,1.17,VWS V14.01,2013-06-14 02:35:00,
2013-06-13 22:40:00,58.2,51.0,29.48,ENE,60,9.0,21.0,77,0.12,,---,1.17,VWS V14.01,2013-06-14 02:40:00,
2013-06-13 22:45:00,58.1,50.9,29.48,NE,51,12.0,21.0,77,0.12,,---,1.17,VWS V14.01,2013-06-14 02:45:00,
2013-06-13 22:50:00,57.9,50.7,29.48,NE,37,11.0,18.0,77,0.08,,---,1.17,VWS V14.01,2013-06-14 02:50:00,
2013-06-13 22:55:00,57.8,50.3,29.48,NE,55,11.0,18.0,76,0.08,,---,1.17,VWS V14.01,2013-06-14 02:55:00,
2013-06-13 23:00:00,57.7,50.2,29.48,NE,45,23.0,23.0,76,0.08,,---,1.17,VWS V14.01,2013-06-14 03:00:00,
2013-06-13 23:05:00,57.7,50.2,29.48,NNE,33,4.0,14.0,76,0.05,,---,1.17,VWS V14.01,2013-06-14 03:05:00,
2013-06-13 23:10:00,57.5,50.0,29.48,NE,50,6.0,15.0,76,0.05,,---,1.17,VWS V14.01,2013-06-14 03:10:00,
2013-06-13 23:15:00,57.5,50.0,29.48,SE,131,6.0,15.0,76,0.05,,---,1.17,VWS V14.01,2013-06-14 03:15:00,
2013-06-13 23:20:00,57.3,49.8,29.49,NE,39,9.0,13.0,76,0.02,,---,1.17,VWS V14.01,2013-06-14 03:20:00,
2013-06-13 23:25:00,57.3,49.8,29.49,NNW,340,5.0,13.0,76,0.02,,---,1.17,VWS V14.01,2013-06-14 03:25:00,
2013-06-13 23:30:00,57.2,49.7,29.50,NNE,26,6.0,19.0,76,0.02,,---,1.17,VWS V14.01,2013-06-14 03:30:00,
2013-06-13 23:35:00,57.1,49.6,29.50,NW,319,4.0,13.0,76,0.01,,---,1.18,VWS V14.01,2013-06-14 03:35:00,
2013-06-13 23:40:00,57.0,49.5,29.50,NE,38,2.0,13.0,76,0.01,,---,1.18,VWS V14.01,2013-06-14 03:40:00,
2013-06-13 23:45:00,56.8,49.3,29.50,North,360,3.0,17.0,76,0.02,,---,1.19,VWS V14.01,2013-06-14 03:45:00,
2013-06-13 23:50:00,56.7,49.2,29.51,ENE,63,4.0,11.0,76,0.02,,---,1.19,VWS V14.01,2013-06-14 03:50:00,
2013-06-13 23:55:00,56.5,49.0,29.51,NE,41,6.0,20.0,76,0.03,,---,1.20,VWS V14.01,2013-06-14 03:55:00,